Bedford County, PA

12:13 AM EDT on October 18, 2019 (GMT -0400)
Bedford County

Weather History for KHMZ - September, 2019

Change the Weather History Date:

Friday, September 20, 2019

  Actual Average (WUND) Record (WUND)
Temperature  
Mean Temperature 59 °F -  
Max Temperature 79 °F - - (-1)
Min Temperature 39 °F - - (-1)
Degree Days  
Heating Degree Days 6    
Growing Degree Days 9 (Base 50)    
Moisture  
Dew Point 49 °F    
Average Humidity 76    
Maximum Humidity 98    
Minimum Humidity 40    
Precipitation  
Precipitation 0.00 in - - ()
Sea Level Pressure  
Sea Level Pressure 30.25 in    
Wind  
Wind Speed 1 mph ()    
Max Wind Speed 7 mph    
Max Gust Speed -    
Visibility 8.9 miles    
Events Fog    
Averages and records for this station are not official NWS values.
T = Trace of Precipitation, MM = Missing Value Source: Averaged Metar Reports

Daily Weather History Graph

Daily Weather History Graph

Search for Another Location

Airport or City:

Astronomy

Sep. 20, 2019 Rise Set
Actual Time 6:59 AM EDT 7:14 PM EDT
Civil Twilight 6:32 AM EDT 7:41 PM EDT
Nautical Twilight 6:00 AM EDT 8:13 PM EDT
Astronomical Twilight 5:28 AM EDT 8:45 PM EDT
Moon 11:03 PM EDT (9/20) 1:02 PM EDT (9/20)
Length of Visible Light 13h 09m
Length of Day
12h 15m
Waning Gibbous, 65% of the Moon is Illuminated
Sep 20
Waning Gibbous
Sep 21
Last Quarter
Sep 28
New
Oct 5
First Quarter
Oct 13
Full

Hourly Weather History & Observations

Time (EDT) Temp. Dew Point Humidity Pressure Visibility Wind Dir Wind Speed Gust Speed Precip Events Conditions
12:15 AM 46.9 °F 45.7 °F 95% 30.28 in 10.0 mi Calm Calm - N/A   Clear
12:35 AM 47.3 °F 46.0 °F 95% 30.28 in 10.0 mi Calm Calm - N/A   Clear
12:55 AM 46.2 °F 45.5 °F 97% 30.27 in 10.0 mi Calm Calm - N/A   Clear
1:15 AM 46.4 °F 45.5 °F 97% 30.27 in 10.0 mi Calm Calm - N/A   Clear
1:35 AM 45.9 °F 45.1 °F 97% 30.28 in 10.0 mi Calm Calm - N/A   Clear
2:15 AM 44.2 °F 43.5 °F 97% 30.28 in 10.0 mi Calm Calm - N/A   Clear
2:35 AM 44.2 °F 43.5 °F 97% 30.28 in 10.0 mi Calm Calm - N/A   Clear
2:55 AM 43.7 °F 42.8 °F 97% 30.28 in 10.0 mi Calm Calm - N/A   Clear
3:15 AM 42.8 °F 41.9 °F 97% 30.28 in 7.0 mi Calm Calm - N/A   Clear
3:35 AM 43.3 °F 42.8 °F 98% 30.28 in 10.0 mi Calm Calm - N/A   Clear
3:55 AM 42.8 °F 42.1 °F 97% 30.28 in 10.0 mi Calm Calm - N/A   Clear
4:15 AM 41.5 °F 41.0 °F 98% 30.27 in 3.0 mi Calm Calm - N/A   Clear
4:35 AM 41.7 °F 41.0 °F 97% 30.28 in 10.0 mi Calm Calm - N/A   Clear
4:55 AM 41.4 °F 40.8 °F 98% 30.28 in 5.0 mi Calm Calm - N/A   Clear
5:15 AM 41.2 °F 40.5 °F 97% 30.28 in 10.0 mi Calm Calm - N/A   Clear
5:35 AM 40.3 °F 39.6 °F 97% 30.29 in 10.0 mi Calm Calm - N/A   Clear
5:55 AM 40.5 °F 39.9 °F 98% 30.29 in 10.0 mi Calm Calm - N/A   Clear
6:15 AM 39.9 °F 39.2 °F 97% 30.28 in 10.0 mi Calm Calm - N/A   Mostly Cloudy
6:35 AM 39.9 °F 39.2 °F 97% 30.29 in 10.0 mi Calm Calm - N/A   Overcast
6:55 AM 40.5 °F 39.7 °F 97% 30.29 in 0.5 mi Calm Calm - N/A Fog Fog
7:15 AM 40.3 °F 39.6 °F 97% 30.30 in 0.2 mi Calm Calm - N/A Fog Fog
7:35 AM 41.2 °F 40.6 °F 98% 30.31 in 0.2 mi Calm Calm - N/A Fog Fog
7:55 AM 42.3 °F 41.5 °F 97% 30.31 in 0.2 mi Calm Calm - N/A Fog Fog
8:15 AM 43.3 °F 42.6 °F 97% 30.32 in 0.2 mi Calm Calm - N/A Fog Fog
8:35 AM 44.6 °F 43.7 °F 97% 30.32 in 0.5 mi Calm Calm - N/A Fog Fog
8:55 AM 46.4 °F 45.7 °F 97% 30.31 in 7.0 mi Calm Calm - N/A   Mostly Cloudy
9:15 AM 48.6 °F 47.8 °F 97% 30.32 in 10.0 mi Calm Calm - N/A   Clear
9:55 AM 55.8 °F 47.5 °F 74% 30.31 in 10.0 mi Calm Calm - N/A   Clear
10:15 AM 58.5 °F 48.4 °F 69% 30.31 in 10.0 mi Calm Calm - N/A   Clear
10:35 AM 61.0 °F 48.6 °F 64% 30.30 in 10.0 mi SSE 3.5 mph - N/A   Clear
10:55 AM 62.8 °F 49.6 °F 62% 30.29 in 10.0 mi ESE 4.6 mph - N/A   Clear
11:15 AM 65.3 °F 50.4 °F 58% 30.29 in 10.0 mi Calm Calm - N/A   Clear
11:35 AM 66.6 °F 50.2 °F 56% 30.28 in 10.0 mi SSE 3.5 mph - N/A   Clear
11:55 AM 67.5 °F 50.4 °F 54% 30.27 in 10.0 mi East 3.5 mph - N/A   Clear
12:15 PM 70.3 °F 50.5 °F 49% 30.26 in 10.0 mi SE 4.6 mph - N/A   Clear
12:55 PM 72.5 °F 51.4 °F 47% 30.25 in 10.0 mi Calm Calm - N/A   Clear
1:15 PM 74.5 °F 52.0 °F 45% 30.24 in 10.0 mi Calm Calm - N/A   Clear
1:35 PM 76.6 °F 52.9 °F 43% 30.23 in 10.0 mi SSW 4.6 mph - N/A   Clear
1:55 PM 77.5 °F 52.3 °F 41% 30.23 in 10.0 mi SSE 3.5 mph - N/A   Clear
2:15 PM 75.4 °F 51.6 °F 43% 30.22 in 10.0 mi NE 3.5 mph - N/A   Clear
2:35 PM 77.4 °F 52.2 °F 41% 30.21 in 10.0 mi SSE 4.6 mph - N/A   Clear
2:55 PM 79.0 °F 52.9 °F 40% 30.20 in 10.0 mi ESE 4.6 mph - N/A   Clear
3:15 PM 79.9 °F 53.4 °F 40% 30.20 in 10.0 mi SW 6.9 mph - N/A   Clear
3:35 PM 78.8 °F 52.7 °F 40% 30.19 in 10.0 mi SE 4.6 mph - N/A   Clear
3:55 PM 78.6 °F 52.9 °F 41% 30.19 in 10.0 mi Calm Calm - N/A   Clear
4:15 PM 79.2 °F 53.4 °F 41% 30.19 in 10.0 mi South 6.9 mph - N/A   Clear
4:35 PM 78.6 °F 53.6 °F 42% 30.18 in 10.0 mi SSE 6.9 mph - N/A   Clear
4:55 PM 78.4 °F 53.1 °F 41% 30.19 in 10.0 mi South 4.6 mph - N/A   Clear
5:15 PM 78.3 °F 53.6 °F 42% 30.19 in 10.0 mi SSE 5.8 mph - N/A   Clear
5:35 PM 78.1 °F 54.3 °F 44% 30.19 in 10.0 mi SSE 6.9 mph - N/A   Clear
5:55 PM 77.7 °F 54.5 °F 45% 30.19 in 10.0 mi South 5.8 mph - N/A   Clear
6:15 PM 76.6 °F 54.9 °F 47% 30.19 in 10.0 mi SSE 4.6 mph - N/A   Clear
6:35 PM 75.9 °F 54.9 °F 48% 30.19 in 10.0 mi Calm Calm - N/A   Clear
6:55 PM 75.4 °F 54.7 °F 48% 30.20 in 10.0 mi Calm Calm - N/A   Clear
7:15 PM 70.7 °F 56.1 °F 60% 30.20 in 10.0 mi Calm Calm - N/A   Clear
7:35 PM 68.0 °F 57.4 °F 69% 30.21 in 10.0 mi Calm Calm - N/A   Clear
7:55 PM 65.3 °F 57.4 °F 76% 30.21 in 10.0 mi Calm Calm - N/A   Clear
8:15 PM 63.0 °F 57.2 °F 81% 30.21 in 10.0 mi Calm Calm - N/A   Clear
8:35 PM 61.0 °F 56.8 °F 86% 30.22 in 10.0 mi Calm Calm - N/A   Clear
8:55 PM 60.4 °F 56.5 °F 87% 30.23 in 10.0 mi Calm Calm - N/A   Clear
9:15 PM 60.3 °F 56.3 °F 87% 30.23 in 10.0 mi Calm Calm - N/A   Clear
9:35 PM 59.0 °F 56.3 °F 91% 30.23 in 10.0 mi Calm Calm - N/A   Clear
9:55 PM 58.3 °F 56.3 °F 93% 30.24 in 10.0 mi Calm Calm - N/A   Clear
10:15 PM 56.7 °F 55.2 °F 95% 30.24 in 10.0 mi Calm Calm - N/A   Clear
10:35 PM 57.2 °F 55.9 °F 96% 30.24 in 10.0 mi Calm Calm - N/A   Clear
10:55 PM 56.7 °F 55.9 °F 97% 30.24 in 10.0 mi Calm Calm - N/A   Clear
11:15 PM 56.5 °F 55.6 °F 97% 30.24 in 10.0 mi Calm Calm - N/A   Clear
11:35 PM 54.7 °F 53.6 °F 96% 30.24 in 10.0 mi Calm Calm - N/A   Clear
11:55 PM 54.7 °F 54.1 °F 98% 30.24 in 10.0 mi Calm Calm - N/A   Clear